• In Germany
  • List of Countries
  • For 7 days
  • Water Temperature
  • Satellite Maps
  • Weather Map
  • Weather Widgets
  • user-avatar
    Login

    Hourly Weather Smolan

    Today, 18 August, Friday

    Time Temperature Precipitation Wind Pressure Humidity
    00:00 +14°C° 0 mm 3 mps 657 mmHg 52%
    01:00 +14°C° 0 mm 3 mps 657 mmHg 53%
    02:00 +14°C° 0 mm 3 mps 657 mmHg 52%
    03:00 +14°C° 0 mm 3 mps 657 mmHg 53%
    04:00 +13°C° 0 mm 3 mps 657 mmHg 53%
    05:00 +13°C° 0 mm 3 mps 657 mmHg 54%
    06:00 +16°C° 0 mm 3 mps 658 mmHg 49%
    07:00 +18°C° 0 mm 4 mps 659 mmHg 44%
    08:00 +20°C° 0 mm 4 mps 659 mmHg 39%
    09:00 +21°C° 0 mm 4 mps 660 mmHg 35%
    10:00 +23°C° 0 mm 5 mps 660 mmHg 31%
    11:00 +25°C° 0 mm 5 mps 661 mmHg 28%
    12:00 +26°C° 0 mm 5 mps 660 mmHg 27%
    13:00 +27°C° 0 mm 5 mps 660 mmHg 26%
    14:00 +27°C° 0 mm 5 mps 660 mmHg 25%
    15:00 +27°C° 0 mm 4 mps 660 mmHg 26%
    16:00 +27°C° 0 mm 4 mps 660 mmHg 26%
    17:00 +26°C° 0 mm 4 mps 660 mmHg 27%
    18:00 +23°C° 0 mm 4 mps 659 mmHg 33%
    19:00 +21°C° 0 mm 3 mps 659 mmHg 38%
    20:00 +18°C° 0 mm 3 mps 658 mmHg 44%
    21:00 +18°C° 0 mm 3 mps 658 mmHg 44%
    22:00 +17°C° 0 mm 3 mps 658 mmHg 45%
    23:00 +16°C° 0 mm 3 mps 658 mmHg 46%

    Tomorrow, 19 August, Saturday

    Time Temperature Precipitation Wind Pressure Humidity
    00:00 +16°C° 0 mm 2 mps 658 mmHg 46%
    01:00 +16°C° 0 mm 2 mps 658 mmHg 47%
    02:00 +15°C° 0 mm 2 mps 658 mmHg 48%
    03:00 +15°C° 0 mm 2 mps 658 mmHg 48%
    04:00 +15°C° 0 mm 2 mps 658 mmHg 48%
    05:00 +15°C° 0 mm 2 mps 657 mmHg 48%
    06:00 +17°C° 0 mm 2 mps 658 mmHg 45%
    07:00 +19°C° 0 mm 2 mps 659 mmHg 41%
    08:00 +21°C° 0 mm 2 mps 660 mmHg 37%
    09:00 +24°C° 0 mm 2 mps 660 mmHg 33%
    10:00 +25°C° 0 mm 2 mps 660 mmHg 29%
    11:00 +27°C° 0 mm 2 mps 661 mmHg 25%
    12:00 +28°C° 0 mm 3 mps 661 mmHg 24%
    13:00 +28°C° 0 mm 3 mps 660 mmHg 23%
    14:00 +29°C° 0 mm 3 mps 660 mmHg 22%
    15:00 +28°C° 0 mm 3 mps 660 mmHg 23%
    16:00 +28°C° 0 mm 2 mps 659 mmHg 25%
    17:00 +27°C° 0 mm 2 mps 659 mmHg 27%
    18:00 +25°C° 0 mm 2 mps 658 mmHg 30%
    19:00 +23°C° 0 mm 2 mps 658 mmHg 34%
    20:00 +20°C° 0 mm 1 mps 657 mmHg 37%
    21:00 +19°C° 0 mm 2 mps 657 mmHg 39%
    22:00 +18°C° 0 mm 2 mps 657 mmHg 40%
    23:00 +17°C° 0 mm 2 mps 657 mmHg 41%

    Day after tomorrow, 20 August, Sunday

    Time Temperature Precipitation Wind Pressure Humidity
    00:00 +17°C° 0 mm 2 mps 657 mmHg 42%
    01:00 +16°C° 0 mm 2 mps 657 mmHg 43%
    02:00 +16°C° 0 mm 2 mps 657 mmHg 44%
    03:00 +15°C° 0 mm 2 mps 656 mmHg 45%
    04:00 +15°C° 0 mm 2 mps 656 mmHg 45%
    05:00 +15°C° 0 mm 2 mps 656 mmHg 46%
    06:00 +17°C° 0 mm 2 mps 657 mmHg 43%
    07:00 +20°C° 0 mm 1 mps 657 mmHg 40%
    08:00 +22°C° 0 mm 1 mps 658 mmHg 37%
    09:00 +24°C° 0 mm 1 mps 659 mmHg 33%
    10:00 +26°C° 0 mm 2 mps 659 mmHg 29%
    11:00 +27°C° 0 mm 2 mps 659 mmHg 25%
    12:00 +28°C° 0 mm 2 mps 659 mmHg 25%
    13:00 +28°C° 0 mm 2 mps 659 mmHg 24%
    14:00 +28°C° 0 mm 3 mps 658 mmHg 24%
    15:00 +28°C° 0 mm 2 mps 658 mmHg 26%
    16:00 +27°C° 0 mm 2 mps 657 mmHg 28%
    17:00 +26°C° 0 mm 2 mps 657 mmHg 30%
    18:00 +24°C° 0 mm 2 mps 656 mmHg 33%
    19:00 +22°C° 0 mm 1 mps 656 mmHg 36%
    20:00 +20°C° 0 mm 1 mps 655 mmHg 39%
    21:00 +20°C° 0 mm 1 mps 655 mmHg 39%
    22:00 +18°C° 0 mm 2 mps 656 mmHg 40%
    23:00 +18°C° 0 mm 2 mps 656 mmHg 40%

    21 August, Monday

    Time Temperature Precipitation Wind Pressure Humidity
    00:00 +17°C° 0 mm 2 mps 655 mmHg 42%
    01:00 +17°C° 0 mm 2 mps 655 mmHg 44%
    02:00 +16°C° 0 mm 2 mps 655 mmHg 46%
    03:00 +16°C° 0 mm 2 mps 655 mmHg 48%
    04:00 +15°C° 0 mm 2 mps 655 mmHg 49%
    05:00 +15°C° 0 mm 2 mps 655 mmHg 51%
    06:00 +16°C° 0 mm 2 mps 655 mmHg 50%
    07:00 +18°C° 0 mm 2 mps 656 mmHg 50%
    08:00 +19°C° 0 mm 2 mps 656 mmHg 49%
    09:00 +21°C° 0.1 mm 2 mps 657 mmHg 46%
    10:00 +23°C° 0.1 mm 2 mps 657 mmHg 43%
    11:00 +24°C° 0.1 mm 2 mps 657 mmHg 40%
    12:00 +24°C° 0.3 mm 2 mps 657 mmHg 43%
    13:00 +24°C° 0.3 mm 2 mps 657 mmHg 45%
    14:00 +23°C° 0.3 mm 2 mps 656 mmHg 48%
    15:00 +23°C° 0.6 mm 2 mps 656 mmHg 52%
    16:00 +21°C° 0.6 mm 2 mps 656 mmHg 56%
    17:00 +20°C° 0.6 mm 2 mps 655 mmHg 60%
    18:00 +19°C° 0.5 mm 2 mps 655 mmHg 64%
    19:00 +18°C° 0.5 mm 1 mps 655 mmHg 69%
    20:00 +16°C° 0.5 mm 1 mps 655 mmHg 73%
    21:00 +15°C° 0.1 mm 2 mps 655 mmHg 74%
    22:00 +14°C° 0.1 mm 2 mps 655 mmHg 75%
    23:00 +13°C° 0.1 mm 2 mps 655 mmHg 77%

    22 August, Tuesday

    Time Temperature Precipitation Wind Pressure Humidity
    00:00 +13°C° 0.1 mm 2 mps 655 mmHg 75%
    01:00 +13°C° 0.1 mm 2 mps 655 mmHg 73%
    02:00 +12°C° 0.1 mm 2 mps 655 mmHg 72%
    03:00 +12°C° 0.1 mm 2 mps 655 mmHg 71%
    04:00 +12°C° 0.1 mm 2 mps 655 mmHg 71%
    05:00 +10°C° 0.1 mm 2 mps 656 mmHg 71%
    06:00 +13°C° 0 mm 2 mps 656 mmHg 65%
    07:00 +14°C° 0 mm 2 mps 657 mmHg 58%
    08:00 +15°C° 0 mm 2 mps 658 mmHg 52%
    09:00 +17°C° 0 mm 2 mps 658 mmHg 47%
    10:00 +18°C° 0 mm 2 mps 659 mmHg 42%
    11:00 +20°C° 0 mm 2 mps 659 mmHg 38%
    12:00 +20°C° 0.1 mm 2 mps 659 mmHg 39%
    13:00 +20°C° 0.1 mm 2 mps 658 mmHg 39%
    14:00 +20°C° 0.1 mm 2 mps 658 mmHg 40%
    15:00 +20°C° 0.1 mm 2 mps 658 mmHg 41%
    16:00 +20°C° 0.1 mm 2 mps 658 mmHg 41%
    17:00 +20°C° 0.1 mm 2 mps 658 mmHg 41%
    18:00 +18°C° 0.1 mm 2 mps 657 mmHg 47%
    19:00 +16°C° 0.1 mm 2 mps 657 mmHg 53%
    20:00 +14°C° 0.1 mm 1 mps 657 mmHg 59%
    21:00 +13°C° 0 mm 1 mps 657 mmHg 60%
    22:00 +12°C° 0 mm 2 mps 657 mmHg 61%
    23:00 +10°C° 0 mm 2 mps 657 mmHg 62%

    23 August, Wednesday

    Time Temperature Precipitation Wind Pressure Humidity
    00:00 +10°C° 0 mm 2 mps 657 mmHg 60%
    01:00 +10°C° 0 mm 2 mps 657 mmHg 59%
    02:00 +9°C° 0 mm 2 mps 657 mmHg 58%
    03:00 +9°C° 0 mm 2 mps 657 mmHg 58%
    04:00 +9°C° 0 mm 2 mps 657 mmHg 58%
    05:00 +8°C° 0 mm 2 mps 657 mmHg 58%
    06:00 +12°C° 0 mm 2 mps 658 mmHg 53%
    07:00 +14°C° 0 mm 2 mps 659 mmHg 47%
    08:00 +16°C° 0 mm 1 mps 660 mmHg 42%
    09:00 +18°C° 0 mm 2 mps 660 mmHg 37%
    10:00 +20°C° 0 mm 2 mps 661 mmHg 33%
    11:00 +21°C° 0 mm 2 mps 661 mmHg 29%
    12:00 +23°C° 0 mm 2 mps 661 mmHg 27%
    13:00 +24°C° 0 mm 2 mps 661 mmHg 26%
    14:00 +25°C° 0 mm 2 mps 661 mmHg 24%
    15:00 +24°C° 0 mm 2 mps 660 mmHg 25%
    16:00 +24°C° 0 mm 2 mps 660 mmHg 26%
    17:00 +23°C° 0 mm 2 mps 660 mmHg 27%
    18:00 +20°C° 0 mm 2 mps 659 mmHg 34%
    19:00 +18°C° 0 mm 1 mps 659 mmHg 40%
    20:00 +14°C° 0 mm 1 mps 658 mmHg 46%
    21:00 +14°C° 0 mm 1 mps 658 mmHg 46%
    22:00 +14°C° 0 mm 2 mps 659 mmHg 47%
    23:00 +13°C° 0 mm 2 mps 659 mmHg 47%
    Show more